When you browse on this site, cookies collect data to enhance your experience and personalize the content and advertising you see.
Visit our Privacy Policy to learn more. By continuing to use the site, you agree to this use of cookies and data.
  • In Deutschland
  • Länderverzeichnis
  • Für 7 Tage
  • Wassertemperatur
  • Wetterkarte
  • Widgets
  • user-avatar
    Anmelden

    Stündliche Wetter Bad Alexandersbad

    Heute, 18 September, Mittwoch

    Zeit Temperatur Niederschläge Wind Luftdruck Luftfeuchtigkeit
    00:00 +6°C° 0 mm 2 m/S 711 mmHg 91%
    01:00 +5°C° 0 mm 2 m/S 711 mmHg 95%
    02:00 +5°C° 0 mm 2 m/S 711 mmHg 96%
    03:00 +5°C° 0 mm 1 m/S 711 mmHg 96%
    04:00 +5°C° 0 mm 1 m/S 711 mmHg 96%
    05:00 +5°C° 0 mm 1 m/S 712 mmHg 95%
    06:00 +6°C° 0 mm 1 m/S 712 mmHg 94%
    07:00 +6°C° 0 mm 1 m/S 713 mmHg 92%
    08:00 +8°C° 0 mm 1 m/S 713 mmHg 82%
    09:00 +9°C° 0 mm 2 m/S 713 mmHg 73%
    10:00 +10°C° 0 mm 2 m/S 713 mmHg 63%
    11:00 +12°C° 0 mm 2 m/S 713 mmHg 61%
    12:00 +11°C° 0 mm 3 m/S 713 mmHg 59%
    13:00 +11°C° 0 mm 3 m/S 713 mmHg 58%
    14:00 +12°C° 0 mm 3 m/S 713 mmHg 57%
    15:00 +12°C° 0 mm 3 m/S 712 mmHg 56%
    16:00 +12°C° 0 mm 3 m/S 712 mmHg 55%
    17:00 +10°C° 0 mm 2 m/S 712 mmHg 62%
    18:00 +8°C° 0 mm 2 m/S 712 mmHg 69%
    19:00 +6°C° 0 mm 2 m/S 712 mmHg 77%
    20:00 +7°C° 0 mm 1 m/S 713 mmHg 80%
    21:00 +6°C° 0 mm 1 m/S 713 mmHg 83%
    22:00 +5°C° 0 mm 1 m/S 713 mmHg 86%
    23:00 +5°C° 0 mm 1 m/S 713 mmHg 87%

    Morgen, 19 September, Donnerstag

    Zeit Temperatur Niederschläge Wind Luftdruck Luftfeuchtigkeit
    00:00 +4°C° 0 mm 1 m/S 714 mmHg 89%
    01:00 +4°C° 0 mm 1 m/S 714 mmHg 90%
    02:00 +4°C° 0 mm 1 m/S 714 mmHg 91%
    03:00 +4°C° 0 mm 1 m/S 714 mmHg 92%
    04:00 +3°C° 0 mm 1 m/S 714 mmHg 94%
    05:00 +4°C° 0 mm 1 m/S 714 mmHg 93%
    06:00 +4°C° 0 mm 1 m/S 714 mmHg 91%
    07:00 +4°C° 0 mm 1 m/S 714 mmHg 90%
    08:00 +6°C° 0 mm 1 m/S 715 mmHg 81%
    09:00 +7°C° 0 mm 2 m/S 715 mmHg 71%
    10:00 +9°C° 0 mm 2 m/S 716 mmHg 62%
    11:00 +10°C° 0 mm 2 m/S 716 mmHg 58%
    12:00 +12°C° 0 mm 2 m/S 716 mmHg 54%
    13:00 +12°C° 0 mm 3 m/S 716 mmHg 50%
    14:00 +12°C° 0 mm 2 m/S 716 mmHg 51%
    15:00 +12°C° 0 mm 2 m/S 715 mmHg 53%
    16:00 +12°C° 0 mm 2 m/S 715 mmHg 55%
    17:00 +9°C° 0 mm 2 m/S 715 mmHg 64%
    18:00 +7°C° 0 mm 2 m/S 715 mmHg 73%
    19:00 +5°C° 0 mm 2 m/S 715 mmHg 81%
    20:00 +5°C° 0 mm 1 m/S 715 mmHg 84%
    21:00 +5°C° 0 mm 1 m/S 715 mmHg 86%
    22:00 +4°C° 0 mm 1 m/S 716 mmHg 89%
    23:00 +4°C° 0 mm 1 m/S 715 mmHg 89%

    übermorgen, 20 September, Freitag

    Zeit Temperatur Niederschläge Wind Luftdruck Luftfeuchtigkeit
    00:00 +4°C° 0 mm 1 m/S 715 mmHg 89%
    01:00 +3°C° 0 mm 0 m/S 715 mmHg 90%
    02:00 +2°C° 0 mm 0 m/S 715 mmHg 90%
    03:00 +3°C° 0 mm 1 m/S 715 mmHg 90%
    04:00 +3°C° 0 mm 1 m/S 715 mmHg 90%
    05:00 +4°C° 0 mm 1 m/S 715 mmHg 88%
    06:00 +4°C° 0 mm 1 m/S 715 mmHg 85%
    07:00 +5°C° 0 mm 1 m/S 715 mmHg 83%
    08:00 +7°C° 0 mm 1 m/S 715 mmHg 74%
    09:00 +9°C° 0 mm 1 m/S 716 mmHg 64%
    10:00 +10°C° 0 mm 2 m/S 716 mmHg 55%
    11:00 +12°C° 0 mm 2 m/S 716 mmHg 51%
    12:00 +13°C° 0 mm 2 m/S 715 mmHg 46%
    13:00 +15°C° 0 mm 2 m/S 715 mmHg 42%
    14:00 +14°C° 0 mm 2 m/S 715 mmHg 44%
    15:00 +14°C° 0 mm 2 m/S 714 mmHg 46%
    16:00 +14°C° 0 mm 2 m/S 714 mmHg 49%
    17:00 +12°C° 0 mm 2 m/S 713 mmHg 57%
    18:00 +9°C° 0 mm 2 m/S 713 mmHg 66%
    19:00 +7°C° 0 mm 2 m/S 713 mmHg 74%
    20:00 +6°C° 0 mm 2 m/S 713 mmHg 75%
    21:00 +6°C° 0 mm 2 m/S 713 mmHg 76%
    22:00 +5°C° 0 mm 2 m/S 713 mmHg 77%
    23:00 +5°C° 0 mm 2 m/S 713 mmHg 77%

    21 September, Samstag

    Zeit Temperatur Niederschläge Wind Luftdruck Luftfeuchtigkeit
    00:00 +5°C° 0 mm 2 m/S 712 mmHg 77%
    01:00 +4°C° 0 mm 2 m/S 712 mmHg 78%
    02:00 +4°C° 0 mm 2 m/S 712 mmHg 78%
    03:00 +4°C° 0 mm 2 m/S 712 mmHg 79%
    04:00 +4°C° 0 mm 2 m/S 712 mmHg 79%
    05:00 +4°C° 0 mm 2 m/S 711 mmHg 78%
    06:00 +5°C° 0 mm 2 m/S 711 mmHg 77%
    07:00 +5°C° 0 mm 2 m/S 711 mmHg 76%
    08:00 +7°C° 0 mm 3 m/S 711 mmHg 69%
    09:00 +10°C° 0 mm 3 m/S 711 mmHg 61%
    10:00 +12°C° 0 mm 3 m/S 711 mmHg 54%
    11:00 +14°C° 0 mm 3 m/S 711 mmHg 51%
    12:00 +16°C° 0 mm 3 m/S 711 mmHg 49%
    13:00 +17°C° 0 mm 3 m/S 711 mmHg 46%
    14:00 +17°C° 0 mm 3 m/S 710 mmHg 48%
    15:00 +17°C° 0 mm 3 m/S 710 mmHg 50%
    16:00 +17°C° 0 mm 3 m/S 709 mmHg 52%
    17:00 +14°C° 0 mm 3 m/S 709 mmHg 60%
    18:00 +12°C° 0 mm 3 m/S 708 mmHg 68%
    19:00 +10°C° 0 mm 2 m/S 707 mmHg 76%
    20:00 +9°C° 0 mm 2 m/S 707 mmHg 78%
    21:00 +8°C° 0 mm 2 m/S 707 mmHg 80%
    22:00 +9°C° 0 mm 1 m/S 707 mmHg 82%
    23:00 +8°C° 0 mm 1 m/S 707 mmHg 83%

    22 September, Sonntag

    Zeit Temperatur Niederschläge Wind Luftdruck Luftfeuchtigkeit
    00:00 +8°C° 0 mm 1 m/S 707 mmHg 83%
    01:00 +8°C° 0 mm 1 m/S 706 mmHg 84%
    02:00 +8°C° 0 mm 1 m/S 706 mmHg 84%
    03:00 +7°C° 0 mm 1 m/S 706 mmHg 84%
    04:00 +7°C° 0 mm 1 m/S 706 mmHg 84%
    05:00 +8°C° 0 mm 1 m/S 706 mmHg 82%
    06:00 +8°C° 0 mm 1 m/S 706 mmHg 81%
    07:00 +8°C° 0 mm 1 m/S 706 mmHg 79%
    08:00 +10°C° 0 mm 1 m/S 706 mmHg 73%
    09:00 +13°C° 0 mm 1 m/S 706 mmHg 68%
    10:00 +15°C° 0 mm 2 m/S 707 mmHg 62%
    11:00 +15°C° 0 mm 2 m/S 706 mmHg 62%
    12:00 +16°C° 0 mm 1 m/S 706 mmHg 62%
    13:00 +18°C° 0 mm 1 m/S 706 mmHg 62%
    14:00 +18°C° 0 mm 1 m/S 706 mmHg 64%
    15:00 +18°C° 0 mm 1 m/S 706 mmHg 67%
    16:00 +18°C° 0 mm 1 m/S 705 mmHg 70%
    17:00 +16°C° 0 mm 1 m/S 705 mmHg 74%
    18:00 +15°C° 0 mm 1 m/S 705 mmHg 78%
    19:00 +14°C° 0 mm 1 m/S 705 mmHg 82%
    20:00 +13°C° 0 mm 1 m/S 705 mmHg 84%
    21:00 +13°C° 0 mm 1 m/S 704 mmHg 86%
    22:00 +12°C° 0 mm 1 m/S 704 mmHg 88%
    23:00 +12°C° 0 mm 1 m/S 704 mmHg 90%

    23 September, Montag

    Zeit Temperatur Niederschläge Wind Luftdruck Luftfeuchtigkeit
    00:00 +12°C° 0 mm 1 m/S 704 mmHg 91%
    01:00 +11°C° 0 mm 0 m/S 704 mmHg 93%
    02:00 +12°C° 0 mm 1 m/S 704 mmHg 93%
    03:00 +12°C° 0 mm 1 m/S 704 mmHg 92%
    04:00 +12°C° 0 mm 1 m/S 705 mmHg 92%
    05:00 +13°C° 0.1 mm 2 m/S 705 mmHg 92%
    06:00 +12°C° 0.1 mm 3 m/S 705 mmHg 93%
    07:00 +12°C° 0.1 mm 4 m/S 706 mmHg 93%
    08:00 +12°C° 0.9 mm 4 m/S 706 mmHg 94%
    09:00 +12°C° 0.9 mm 4 m/S 707 mmHg 94%
    10:00 +12°C° 0.9 mm 4 m/S 707 mmHg 95%
    11:00 +12°C° 0.7 mm 3 m/S 707 mmHg 92%
    12:00 +13°C° 0.7 mm 3 m/S 707 mmHg 90%
    13:00 +13°C° 0.7 mm 3 m/S 708 mmHg 87%
    14:00 +13°C° 0.2 mm 3 m/S 708 mmHg 87%
    15:00 +13°C° 0.2 mm 3 m/S 708 mmHg 86%
    16:00 +13°C° 0.2 mm 3 m/S 708 mmHg 86%
    17:00 +13°C° 0 mm 2 m/S 708 mmHg 89%
    18:00 +12°C° 0 mm 2 m/S 708 mmHg 92%
    19:00 +10°C° 0 mm 2 m/S 708 mmHg 95%
    20:00 +10°C° 0 mm 1 m/S 708 mmHg 95%
    21:00 +10°C° 0 mm 1 m/S 708 mmHg 95%
    22:00 +9°C° 0 mm 1 m/S 709 mmHg 95%
    23:00 +9°C° 0 mm 1 m/S 709 mmHg 95%
    Mehr zeigen